Weather History for Sanford, FL

Change the Weather History Date:

Tuesday, June 17, 2014

  Actual Average Record
Temperature  
Mean Temperature 81 °F -  
Max Temperature 90 °F 91 °F 100 °F (1981)
Min Temperature 72 °F 69 °F 63 °F (1980)
Cooling Degree Days 16    
Growing Degree Days 31 (Base 50)    
Moisture  
Dew Point 70 °F    
Average Humidity 73    
Maximum Humidity 96    
Minimum Humidity 48    
Precipitation  
Precipitation 0.00 in - - ()
Sea Level Pressure  
Sea Level Pressure 30.13 in    
Wind  
Wind Speed 4 mph (East)    
Max Wind Speed 14 mph    
Max Gust Speed 28 mph    
Visibility 10 miles    
Events      
Averages and records for this station are not official NWS values.
T = Trace of Precipitation, MM = Missing Value Source: NWS Daily Summary

Daily Weather History Graph

Daily Weather History Graph

Search for Another Location

Airport:

Trip Planner

Search our weather history database for the weather conditions in past years. The results will help you decide how hot, cold, wet, or windy it might be!

Date:

Astronomy

Jun. 17, 2014 Rise Set
Actual Time 6:26 AM EDT 8:25 PM EDT
Civil Twilight 5:59 AM EDT 8:52 PM EDT
Nautical Twilight 5:26 AM EDT 9:24 PM EDT
Astronomical Twilight 4:52 AM EDT 9:59 PM EDT
Moon No Moon Rise 11:18 AM EDT (6/17)
Length of Visible Light 14h 52m
Length of Day
13h 58m
Waning Gibbous, 73% of the Moon is Illuminated
Jun 17
Waning Gibbous
Jun 19
Last Quarter
Jun 27
New
Jul 5
First Quarter
Jul 12
Full

Hourly Weather History & Observations

Time (EDT) Temp. Heat Index Dew Point Humidity Pressure Visibility Wind Dir Wind Speed Gust Speed Precip Events Conditions
12:53 AM 75.0 °F - 73.0 °F 94% 30.14 in 10.0 mi SE 4.6 mph - N/A   Clear
1:53 AM 73.9 °F - 72.0 °F 93% 30.12 in 10.0 mi SSE 4.6 mph - N/A   Clear
2:53 AM 73.9 °F - 72.0 °F 93% 30.11 in 10.0 mi Calm Calm - N/A   Clear
3:53 AM 73.0 °F - 72.0 °F 96% 30.10 in 10.0 mi Calm Calm - N/A   Clear
4:53 AM 72.0 °F - 70.0 °F 93% 30.11 in 10.0 mi Calm Calm - N/A   Clear
5:53 AM 73.0 °F - 71.1 °F 93% 30.12 in 10.0 mi Calm Calm - N/A   Clear
6:53 AM 72.0 °F - 70.0 °F 93% 30.14 in 10.0 mi Calm Calm - N/A   Clear
7:53 AM 75.9 °F - 73.0 °F 91% 30.16 in 10.0 mi Calm Calm - N/A   Clear
8:53 AM 79.0 °F - 71.1 °F 77% 30.18 in 10.0 mi Calm Calm - N/A   Clear
9:53 AM 82.0 °F 85.9 °F 70.0 °F 67% 30.18 in 10.0 mi Calm Calm - N/A   Clear
10:53 AM 82.9 °F 87.0 °F 70.0 °F 65% 30.18 in 10.0 mi Calm Calm - N/A   Clear
11:53 AM 86.0 °F 90.7 °F 70.0 °F 59% 30.17 in 10.0 mi NE 5.8 mph - N/A   Mostly Cloudy
12:53 PM 87.1 °F 91.3 °F 69.1 °F 55% 30.15 in 10.0 mi Variable 3.5 mph - N/A   Partly Cloudy
1:53 PM 88.0 °F 91.4 °F 68.0 °F 51% 30.13 in 10.0 mi Variable 6.9 mph - N/A   Partly Cloudy
2:53 PM 89.1 °F 92.9 °F 68.0 °F 50% 30.12 in 10.0 mi East 9.2 mph - N/A   Partly Cloudy
3:53 PM 90.0 °F 93.6 °F 68.0 °F 48% 30.12 in 10.0 mi ESE 13.8 mph - N/A   Clear
4:53 PM 88.0 °F 91.4 °F 68.0 °F 51% 30.11 in 10.0 mi ESE 12.7 mph - N/A   Clear
5:53 PM 87.1 °F 89.9 °F 66.9 °F 51% 30.11 in 10.0 mi ESE 12.7 mph - N/A   Clear
6:53 PM 84.9 °F 87.6 °F 66.9 °F 55% 30.10 in 10.0 mi East 12.7 mph 27.6 mph N/A   Clear
7:53 PM 82.0 °F 84.1 °F 66.0 °F 58% 30.10 in 10.0 mi ESE 11.5 mph - N/A   Clear
8:53 PM 79.0 °F - 68.0 °F 69% 30.09 in 10.0 mi East 6.9 mph - N/A   Clear
9:53 PM 78.1 °F - 70.0 °F 76% 30.12 in 10.0 mi East 4.6 mph - N/A   Clear
10:53 PM 75.9 °F - 70.0 °F 82% 30.13 in 10.0 mi East 4.6 mph - N/A   Clear
11:53 PM 75.0 °F - 71.1 °F 87% 30.14 in 10.0 mi ESE 4.6 mph - N/A   Clear